This is the latest recevied weather packets stored in our database for station/object IR9AK-10. If no packets are shown the sender has not sent any weather packets the latest 1 day(s).
| Time | Temp. | Humidity | Pressure | Rain* | Wind** | Luminosity | Snow |
|---|---|---|---|---|---|---|---|
| 1788637326 | 38.33° C | 38% | 1064.6 hPa | - | - | - | - |
| 1788636726 | 38.33° C | 38% | 1064.6 hPa | - | - | - | - |
| 1788636127 | 38.33° C | 39% | 1064.5 hPa | - | - | - | - |
| 1788634880 | 40° C | 36% | 1064.2 hPa | - | - | - | - |
| 1788634280 | 40° C | 35% | 1064.1 hPa | - | - | - | - |
| 1788633681 | 40° C | 36% | 1064 hPa | - | - | - | - |
| 1788633081 | 40° C | 36% | 1063.9 hPa | - | - | - | - |
| 1788632482 | 40.56° C | 35% | 1063.8 hPa | - | - | - | - |
| 1788631883 | 40° C | 36% | 1063.7 hPa | - | - | - | - |
| 1788631284 | 40.56° C | 36% | 1063.6 hPa | - | - | - | - |
| 1788630685 | 40.56° C | 36% | 1063.5 hPa | - | - | - | - |
| 1788630086 | 40.56° C | 36% | 1063.5 hPa | - | - | - | - |
| 1788629487 | 40.56° C | 37% | 1063.4 hPa | - | - | - | - |
| 1788628888 | 40.56° C | 37% | 1063.3 hPa | - | - | - | - |
| 1788628289 | 40.56° C | 36% | 1063.4 hPa | - | - | - | - |
| 1788627691 | 40.56° C | 37% | 1063.5 hPa | - | - | - | - |
| 1788627091 | 41.11° C | 37% | 1063.4 hPa | - | - | - | - |
| 1788626492 | 41.11° C | 36% | 1063.4 hPa | - | - | - | - |
| 1788625893 | 41.11° C | 37% | 1063.4 hPa | - | - | - | - |
| 1788625293 | 41.11° C | 37% | 1063.5 hPa | - | - | - | - |
| 1788624693 | 41.11° C | 34% | 1063.5 hPa | - | - | - | - |
| 1788624095 | 41.11° C | 36% | 1063.6 hPa | - | - | - | - |
| 1788623495 | 40.56° C | 37% | 1063.5 hPa | - | - | - | - |
| 1788622896 | 41.11° C | 37% | 1063.5 hPa | - | - | - | - |
| 1788622296 | 41.11° C | 37% | 1063.6 hPa | - | - | - | - |
* Rain since midnight (hover to see other rain measurements)
** Current wind speed in m/s (hover to see current wind gust speed)